Home   Weather   Mason   Past weeks

Flag for USA Past Weather in Mason, Ohio, USA — Yesterday and Last 2 Weeks

Now
91 °F

Sunny.


Feels Like: 106 °F
Forecast: 76 / 90 °F
Wind: 12 mph from Southwest

Location: Butler County Regional Airport

Current Time: Jul 22, 2017 at 5:02:11 pm

Latest Report: Jul 22, 2017 at 3:53 pm


Visibility: 8 mi

Pressure: 29.80 "Hg

Humidity: 66%

Dew Point: 78 °F

Location of MasonLocation

Past Weather in Mason — Graph

°F

Mason Temperature Yesterday

Maximum temperature yesterday: 88 °F (at 5:53 pm)
Minimum temperature yesterday: 72 °F (at 9:53 am)
Average temperature yesterday: 79 °F

High & Low Weather Summary for the Past Weeks

 TemperatureHumidityPressure
High91 °F (Jul 22, 3:53 pm)100% (Jul 7, 6:19 pm)30.16 "Hg (Jul 7, 6:19 pm)
Low53 °F (Jul 9, 6:19 am)39% (Jul 9, 11:53 am)29.79 "Hg (Jul 22, 1:53 pm)
Average76 °F83%30.02 "Hg
* Reported Jul 7 3:53 pm — Jul 22 3:53 pm, Mason. Weather by CustomWeather, © 2017

Note: Actual official high and low records may vary slightly from our data, if they occured in-between our weather recording intervals... More about our weather records

Advertising

Mason Weather History for the Previous 24 Hours

Scroll right to see more
 ConditionsComfort  
Time TempWeatherWind HumidityBarometerVisibility
3:53 pm
Sat, Jul 22
91 °FSunny.12 mph66%29.80 "Hg8 mi
2:53 pm89 °FSunny.6 mph68%29.79 "Hg8 mi
1:53 pm89 °FSunny.12 mph70%29.79 "Hg8 mi
12:53 pm88 °FScattered clouds.8 mph73%29.85 "Hg7 mi
11:53 am86 °FScattered clouds.12 mph80%29.88 "Hg6 mi
10:53 am84 °FScattered clouds.6 mph77%29.90 "Hg8 mi
9:53 am81 °FScattered clouds.5 mph79%29.90 "Hg10 mi
8:53 am78 °FSunny.No wind87%29.89 "Hg10 mi
7:53 am75 °FSunny.No wind94%29.90 "Hg10 mi
6:53 am77 °FPartly sunny.8 mph85%29.91 "Hg10 mi
6:36 am78 °FThundershowers. Mostly cloudy.8 mph87%29.92 "Hg8 mi
5:53 am75 °FPassing clouds.No wind96%29.88 "Hg8 mi
5:39 am74 °FClear.No wind100%29.89 "Hg8 mi
5:14 am74 °FThunderstorms. Passing clouds.No wind100%29.90 "Hg8 mi
4:53 am75 °FPassing clouds.No wind94%29.89 "Hg9 mi
3:53 am76 °FPassing clouds.3 mph91%29.88 "Hg10 mi
2:53 am75 °FClear.3 mph90%29.90 "Hg10 mi
1:53 am77 °FClear.No wind90%29.92 "Hg10 mi
12:53 am76 °FClear.3 mph94%29.94 "Hg10 mi
11:53 pm
Fri, Jul 21
76 °FClear.No wind94%29.97 "Hg10 mi
10:53 pm76 °FClear.No wind94%29.96 "Hg10 mi
9:53 pm78 °FPassing clouds.No wind87%29.95 "Hg10 mi
8:53 pm82 °FPassing clouds.5 mph79%29.95 "Hg10 mi
7:53 pm85 °FThundershowers. Partly sunny.3 mph72%29.94 "Hg10 mi
6:53 pm88 °FPartly sunny.5 mph67%29.94 "Hg10 mi
5:53 pm88 °FPassing clouds.6 mph63%29.95 "Hg10 mi
Weather by CustomWeather, © 2017

See weather overviewHow to use our weather pages